QPF
0.00 0.00 0.00 0.00 0.00 0.00 0.00 0.00 0.00 0.00 0.00 0.00 0.00 0.00 0.00 0.00 0.00 0.00 0.00 0.00 0.00 0.00 0.00 0.00 0.00 0.00 0.00 0.00 0.00 0.00 0.00 0.01 0.00 0.00 0.00 0.00 0.01 0.01 0.01 0.02 0.03 0.03 0.03
0.00 0.00 0.00 0.00 0.00 0.00 0.00 0.00 0.00 0.00 0.00 0.00 0.00 0.00 0.00 0.00 0.00 0.00 0.00 0.00 0.00 0.00 0.00 0.00 0.00 0.00 0.00 0.00 0.00 0.00 0.00 0.01 0.01 0.00 0.00 0.00 0.00 0.00 0.01 0.01 0.02 0.02 0.02
0.00 0.00 0.00 0.00 0.00 0.00 0.00 0.00 0.00 0.00 0.00 0.00 0.00 0.00 0.00 0.00 0.00 0.00 0.00 0.00 0.00 0.00 0.00 0.00 0.00 0.00 0.00 0.00 0.00 0.00 0.00 0.00 0.00 0.00 0.00 0.00 0.00 0.00 0.01 0.01 0.01 0.02 0.02
0.00 0.00 0.00 0.00 0.00 0.00 0.00 0.00 0.00 0.00 0.00 0.00 0.00 0.00 0.00 0.00 0.00 0.00 0.00 0.00 0.00 0.00 0.00 0.00 0.00 0.00 0.00 0.00 0.00 0.00 0.00 0.00 0.00 0.00 0.00 0.00 0.00 0.00 0.01 0.01 0.01 0.02 0.03
0.00 0.00 0.00 0.00 0.00 0.00 0.00 0.00 0.00 0.00 0.00 0.00 0.00 0.00 0.00 0.00 0.00 0.00 0.00 0.00 0.00 0.00 0.00 0.00 0.00 0.00 0.00 0.00 0.00 0.00 0.00 0.00 0.00 0.00 0.00 0.00 0.00 0.00 0.01 0.01 0.01 0.02 0.03
0.00 0.00 0.00 0.00 0.00 0.00 0.00 0.00 0.00 0.00 0.00 0.00 0.00 0.00 0.00 0.00 0.00 0.00 0.00 0.00 0.00 0.00 0.00 0.00 0.00 0.00 0.00 0.00 0.00 0.00 0.00 0.00 0.00 0.00 0.00 0.00 0.00 0.00 0.00 0.01 0.01 0.02 0.03
0.00 0.00 0.00 0.00 0.00 0.00 0.00 0.00 0.00 0.00 0.00 0.00 0.00 0.00 0.00 0.00 0.00 0.00 0.00 0.00 0.00 0.00 0.00 0.00 0.00 0.00 0.00 0.00 0.01 0.00 0.00 0.00 0.01 0.00 0.00 0.00 0.00 0.00 0.00 0.00 0.01 0.02 0.03
0.00 0.00 0.00 0.00 0.00 0.00 0.00 0.00 0.00 0.00 0.00 0.00 0.00 0.00 0.00 0.00 0.00 0.00 0.00 0.00 0.00 0.00 0.00 0.00 0.00 0.00 0.00 0.00 0.00 0.00 0.00 0.00 0.00 0.00 0.00 0.00 0.00 0.00 0.00 0.00 0.00 0.01 0.02
0.00 0.00 0.00 0.00 0.00 0.00 0.00 0.00 0.00 0.00 0.00 0.00 0.00 0.00 0.00 0.00 0.00 0.00 0.00 0.00 0.00 0.00 0.00 0.00 0.00 0.00 0.00 0.00 0.01 0.00 0.00 0.00 0.00 0.00 0.00 0.00 0.00 0.00 0.00 0.00 0.00 0.01 0.01
0.00 0.00 0.00 0.00 0.00 0.00 0.00 0.00 0.00 0.00 0.00 0.00 0.00 0.00 0.00 0.00 0.00 0.00 0.00 0.00 0.00 0.00 0.00 0.00 0.00 0.00 0.00 0.00 0.00 0.00 0.00 0.00 0.00 0.00 0.00 0.00 0.00 0.00 0.00 0.00 0.00 0.01 0.01
0.00 0.00 0.00 0.00 0.00 0.00 0.00 0.00 0.00 0.00 0.00 0.00 0.00 0.00 0.00 0.00 0.00 0.00 0.00 0.00 0.00 0.00 0.00 0.00 0.00 0.00 0.00 0.00 0.00 0.00 0.00 0.00 0.00 0.00 0.00 0.00 0.00 0.00 0.00 0.00 0.00 0.00 0.01
0.00 0.00 0.00 0.00 0.00 0.00 0.00 0.00 0.00 0.00 0.00 0.00 0.00 0.00 0.00 0.00 0.00 0.00 0.00 0.00 0.00 0.00 0.00 0.00 0.00 0.00 0.00 0.00 0.00 0.00 0.00 0.00 0.00 0.00 0.00 0.00 0.00 0.00 0.00 0.00 0.01 0.00 0.00
0.01 0.01 0.01 0.01 0.01 0.00 0.00 0.00 0.00 0.00 0.00 0.00 0.00 0.00 0.00 0.00 0.00 0.00 0.00 0.00 0.00 0.00 0.00 0.00 0.00 0.00 0.00 0.00 0.00 0.00 0.00 0.00 0.00 0.00 0.00 0.00 0.00 0.00 0.01 0.01 0.02 0.02 0.02
0.01 0.01 0.01 0.00 0.00 0.00 0.00 0.00 0.00 0.00 0.00 0.01 0.00 0.00 0.00 0.00 0.00 0.00 0.00 0.00 0.00 0.00 0.00 0.00 0.00 0.00 0.00 0.00 0.00 0.00 0.00 0.00 0.00 0.00 0.00 0.00 0.00 0.01 0.01 0.01 0.01 0.02 0.02
0.01 0.01 0.00 0.00 0.00 0.00 0.00 0.00 0.00 0.00 0.01 0.01 0.01 0.01 0.01 0.01 0.00 0.00 0.00 0.00 0.00 0.00 0.00 0.00 0.00 0.00 0.00 0.00 0.00 0.00 0.00 0.00 0.00 0.00 0.00 0.00 0.00 0.00 0.01 0.01 0.02 0.03 0.03
0.02 0.01 0.01 0.01 0.00 0.00 0.00 0.00 0.01 0.01 0.01 0.01 0.01 0.01 0.01 0.01 0.01 0.01 0.00 0.00 0.00 0.00 0.00 0.00 0.00 0.00 0.00 0.00 0.00 0.01 0.01 0.01 0.01 0.01 0.00 0.00 0.00 0.01 0.01 0.02 0.03 0.04 0.04
0.04 0.03 0.02 0.02 0.02 0.01 0.01 0.01 0.01 0.01 0.01 0.01 0.01 0.01 0.01 0.01 0.01 0.01 0.01 0.01 0.00 0.00 0.00 0.00 0.00 0.00 0.00 0.01 0.01 0.01 0.01 0.01 0.02 0.01 0.01 0.01 0.01 0.01 0.02 0.02 0.03 0.04 0.05
0.03 0.03 0.03 0.02 0.02 0.02 0.02 0.02 0.02 0.02 0.01 0.01 0.01 0.01 0.01 0.01 0.02 0.02 0.02 0.01 0.00 0.00 0.00 0.00 0.00 0.00 0.01 0.01 0.01 0.01 0.01 0.01 0.02 0.02 0.02 0.02 0.02 0.02 0.02 0.02 0.03 0.04 0.07
0.03 0.02 0.03 0.03 0.03 0.03 0.02 0.02 0.01 0.01 0.01 0.01 0.01 0.02 0.03 0.03 0.03 0.03 0.03 0.01 0.01 0.01 0.01 0.01 0.01 0.01 0.01 0.01 0.01 0.01 0.01 0.01 0.02 0.02 0.02 0.02 0.02 0.02 0.03 0.04 0.05 0.05 0.08
0.02 0.02 0.02 0.03 0.02 0.02 0.02 0.02 0.01 0.01 0.02 0.02 0.02 0.03 0.04 0.04 0.04 0.04 0.04 0.02 0.02 0.01 0.01 0.01 0.01 0.01 0.01 0.01 0.02 0.02 0.02 0.02 0.02 0.02 0.02 0.02 0.02 0.03 0.03 0.04 0.05 0.05 0.06
0.01 0.01 0.02 0.02 0.02 0.02 0.02 0.02 0.02 0.03 0.03 0.03 0.03 0.04 0.05 0.06 0.05 0.05 0.05 0.04 0.03 0.03 0.02 0.02 0.02 0.02 0.02 0.02 0.03 0.03 0.03 0.02 0.02 0.03 0.02 0.02 0.02 0.02 0.03 0.03 0.04 0.05 0.06
0.00 0.00 0.01 0.01 0.01 0.01 0.01 0.02 0.02 0.03 0.04 0.04 0.04 0.05 0.06 0.06 0.04 0.04 0.04 0.05 0.05 0.04 0.04 0.04 0.03 0.02 0.02 0.02 0.03 0.03 0.03 0.03 0.02 0.03 0.03 0.03 0.03 0.03 0.03 0.03 0.04 0.04 0.06
0.00 0.00 0.00 0.00 0.00 0.01 0.01 0.02 0.02 0.03 0.03 0.04 0.05 0.06 0.07 0.07 0.06 0.05 0.05 0.05 0.05 0.05 0.04 0.03 0.02 0.01 0.02 0.02 0.02 0.03 0.03 0.03 0.03 0.03 0.05 0.05 0.04 0.04 0.04 0.04 0.05 0.05 0.05
0.00 0.00 0.00 0.00 0.01 0.01 0.02 0.03 0.03 0.04 0.05 0.06 0.08 0.09 0.10 0.09 0.09 0.09 0.08 0.07 0.06 0.05 0.03 0.02 0.02 0.01 0.01 0.01 0.02 0.02 0.03 0.03 0.03 0.03 0.04 0.05 0.05 0.05 0.05 0.05 0.05 0.05 0.05
0.00 0.00 0.01 0.01 0.01 0.02 0.03 0.04 0.05 0.05 0.07 0.08 0.08 0.08 0.11 0.12 0.12 0.10 0.08 0.07 0.06 0.05 0.04 0.02 0.02 0.01 0.01 0.01 0.01 0.01 0.01 0.01 0.01 0.02 0.03 0.03 0.04 0.04 0.05 0.06 0.07 0.06 0.06
0.00 0.01 0.01 0.01 0.02 0.02 0.03 0.06 0.07 0.08 0.09 0.09 0.08 0.10 0.13 0.14 0.13 0.10 0.07 0.06 0.06 0.04 0.02 0.01 0.02 0.01 0.01 0.01 0.01 0.01 0.00 0.01 0.00 0.01 0.02 0.02 0.03 0.03 0.04 0.06 0.08 0.07 0.06
MSLP
1014.25 1014.67 1015.09 1015.45 1015.73 1015.93 1016.04 1016.11 1016.15 1016.21 1016.30 1016.43 1016.57 1016.72 1016.83 1016.89 1016.90 1016.85 1016.77 1016.66 1016.58 1016.53 1016.52 1016.55 1016.62 1016.69 1016.74 1016.75 1016.71 1016.61 1016.45 1016.26 1016.02 1015.77 1015.50 1015.23 1014.95 1014.67 1014.40 1014.16 1013.95 1013.80 1013.71
1014.02 1014.34 1014.67 1014.97 1015.22 1015.41 1015.55 1015.66 1015.75 1015.86 1015.98 1016.13 1016.28 1016.42 1016.53 1016.59 1016.59 1016.55 1016.46 1016.37 1016.28 1016.21 1016.17 1016.16 1016.17 1016.18 1016.18 1016.16 1016.10 1016.01 1015.89 1015.76 1015.60 1015.44 1015.26 1015.07 1014.85 1014.63 1014.39 1014.16 1013.94 1013.77 1013.64
1013.85 1014.09 1014.33 1014.56 1014.76 1014.93 1015.08 1015.20 1015.32 1015.45 1015.59 1015.75 1015.90 1016.04 1016.15 1016.21 1016.23 1016.20 1016.14 1016.07 1016.00 1015.93 1015.88 1015.84 1015.81 1015.77 1015.72 1015.65 1015.57 1015.47 1015.37 1015.27 1015.17 1015.07 1014.97 1014.84 1014.70 1014.52 1014.32 1014.10 1013.88 1013.69 1013.54
1013.73 1013.90 1014.07 1014.24 1014.39 1014.53 1014.66 1014.78 1014.90 1015.03 1015.18 1015.33 1015.48 1015.61 1015.71 1015.78 1015.81 1015.81 1015.79 1015.75 1015.71 1015.67 1015.62 1015.58 1015.52 1015.44 1015.35 1015.24 1015.12 1015.00 1014.90 1014.81 1014.74 1014.68 1014.63 1014.56 1014.46 1014.33 1014.16 1013.96 1013.75 1013.55 1013.38
1013.57 1013.71 1013.85 1013.98 1014.09 1014.20 1014.31 1014.41 1014.53 1014.65 1014.78 1014.91 1015.04 1015.15 1015.24 1015.31 1015.35 1015.38 1015.38 1015.39 1015.38 1015.37 1015.35 1015.30 1015.23 1015.14 1015.01 1014.86 1014.71 1014.57 1014.44 1014.35 1014.29 1014.25 1014.22 1014.19 1014.13 1014.04 1013.91 1013.74 1013.54 1013.35 1013.17
1013.31 1013.47 1013.60 1013.72 1013.83 1013.92 1014.01 1014.11 1014.21 1014.32 1014.42 1014.53 1014.63 1014.71 1014.78 1014.83 1014.87 1014.90 1014.93 1014.96 1014.98 1015.00 1015.00 1014.97 1014.90 1014.80 1014.65 1014.48 1014.30 1014.13 1013.98 1013.87 1013.80 1013.77 1013.76 1013.75 1013.73 1013.67 1013.57 1013.43 1013.26 1013.08 1012.90
1012.90 1013.10 1013.28 1013.42 1013.54 1013.65 1013.75 1013.84 1013.94 1014.03 1014.12 1014.19 1014.25 1014.30 1014.33 1014.35 1014.36 1014.38 1014.41 1014.45 1014.49 1014.53 1014.54 1014.53 1014.47 1014.37 1014.22 1014.04 1013.84 1013.65 1013.48 1013.36 1013.28 1013.24 1013.24 1013.25 1013.25 1013.22 1013.16 1013.05 1012.92 1012.76 1012.60
1012.32 1012.60 1012.83 1013.03 1013.20 1013.34 1013.46 1013.57 1013.67 1013.76 1013.83 1013.88 1013.90 1013.90 1013.88 1013.86 1013.83 1013.82 1013.83 1013.86 1013.90 1013.95 1013.98 1013.98 1013.93 1013.84 1013.70 1013.52 1013.32 1013.12 1012.94 1012.81 1012.72 1012.68 1012.68 1012.70 1012.72 1012.73 1012.70 1012.63 1012.54 1012.41 1012.28
1011.63 1011.98 1012.29 1012.55 1012.77 1012.96 1013.13 1013.26 1013.38 1013.46 1013.52 1013.54 1013.52 1013.48 1013.41 1013.34 1013.27 1013.22 1013.20 1013.20 1013.24 1013.28 1013.32 1013.34 1013.31 1013.24 1013.12 1012.95 1012.76 1012.57 1012.40 1012.26 1012.17 1012.13 1012.13 1012.15 1012.19 1012.22 1012.22 1012.19 1012.13 1012.04 1011.93
1010.91 1011.32 1011.69 1012.01 1012.28 1012.52 1012.71 1012.88 1013.00 1013.09 1013.13 1013.13 1013.08 1012.99 1012.88 1012.76 1012.65 1012.57 1012.52 1012.51 1012.53 1012.58 1012.63 1012.66 1012.66 1012.62 1012.52 1012.38 1012.21 1012.04 1011.87 1011.74 1011.65 1011.60 1011.60 1011.63 1011.67 1011.71 1011.74 1011.73 1011.69 1011.63 1011.55
1010.27 1010.70 1011.10 1011.45 1011.76 1012.02 1012.23 1012.40 1012.53 1012.61 1012.63 1012.60 1012.52 1012.40 1012.26 1012.11 1011.97 1011.87 1011.81 1011.80 1011.83 1011.88 1011.95 1012.01 1012.04 1012.03 1011.96 1011.85 1011.71 1011.55 1011.40 1011.27 1011.17 1011.12 1011.11 1011.13 1011.17 1011.21 1011.24 1011.24 1011.22 1011.17 1011.10
1009.80 1010.22 1010.60 1010.95 1011.25 1011.50 1011.70 1011.86 1011.96 1012.01 1012.00 1011.94 1011.83 1011.68 1011.52 1011.36 1011.23 1011.13 1011.08 1011.09 1011.14 1011.23 1011.33 1011.42 1011.48 1011.50 1011.46 1011.38 1011.26 1011.11 1010.97 1010.84 1010.73 1010.67 1010.64 1010.65 1010.67 1010.69 1010.71 1010.71 1010.68 1010.63 1010.56
1009.57 1009.92 1010.25 1010.55 1010.80 1011.00 1011.16 1011.26 1011.31 1011.31 1011.25 1011.15 1011.01 1010.85 1010.68 1010.53 1010.42 1010.35 1010.34 1010.39 1010.49 1010.62 1010.76 1010.89 1010.98 1011.03 1011.02 1010.95 1010.84 1010.69 1010.54 1010.40 1010.29 1010.20 1010.15 1010.12 1010.12 1010.11 1010.11 1010.08 1010.04 1009.98 1009.91
1009.58 1009.84 1010.08 1010.29 1010.45 1010.57 1010.64 1010.66 1010.63 1010.55 1010.43 1010.28 1010.11 1009.93 1009.77 1009.65 1009.57 1009.56 1009.61 1009.72 1009.88 1010.06 1010.24 1010.40 1010.52 1010.57 1010.57 1010.50 1010.38 1010.22 1010.06 1009.89 1009.75 1009.64 1009.55 1009.50 1009.46 1009.43 1009.39 1009.34 1009.28 1009.20 1009.12
1009.80 1009.94 1010.07 1010.16 1010.22 1010.23 1010.20 1010.11 1009.98 1009.80 1009.60 1009.39 1009.18 1008.99 1008.84 1008.75 1008.72 1008.77 1008.89 1009.06 1009.27 1009.50 1009.71 1009.89 1010.01 1010.06 1010.03 1009.94 1009.80 1009.61 1009.42 1009.23 1009.05 1008.91 1008.80 1008.72 1008.65 1008.59 1008.54 1008.47 1008.39 1008.30 1008.22
1010.13 1010.16 1010.17 1010.16 1010.10 1009.99 1009.84 1009.63 1009.39 1009.11 1008.83 1008.54 1008.29 1008.08 1007.94 1007.88 1007.90 1008.00 1008.17 1008.40 1008.65 1008.90 1009.12 1009.29 1009.39 1009.40 1009.34 1009.20 1009.02 1008.79 1008.56 1008.34 1008.14 1007.98 1007.85 1007.75 1007.67 1007.61 1007.54 1007.47 1007.39 1007.30 1007.23
1010.48 1010.41 1010.33 1010.21 1010.05 1009.83 1009.57 1009.25 1008.90 1008.52 1008.14 1007.79 1007.49 1007.26 1007.12 1007.07 1007.12 1007.25 1007.46 1007.71 1007.97 1008.22 1008.42 1008.55 1008.61 1008.57 1008.45 1008.26 1008.02 1007.75 1007.49 1007.24 1007.03 1006.85 1006.72 1006.62 1006.55 1006.49 1006.44 1006.38 1006.31 1006.24 1006.18
1010.75 1010.61 1010.46 1010.27 1010.02 1009.72 1009.36 1008.95 1008.49 1008.03 1007.57 1007.15 1006.80 1006.54 1006.38 1006.33 1006.38 1006.52 1006.73 1006.97 1007.22 1007.44 1007.59 1007.67 1007.66 1007.56 1007.38 1007.13 1006.84 1006.54 1006.25 1005.99 1005.77 1005.60 1005.49 1005.41 1005.35 1005.32 1005.28 1005.25 1005.21 1005.16 1005.13
1010.88 1010.71 1010.51 1010.27 1009.97 1009.61 1009.17 1008.68 1008.14 1007.60 1007.07 1006.59 1006.19 1005.89 1005.70 1005.63 1005.67 1005.79 1005.97 1006.19 1006.39 1006.56 1006.65 1006.66 1006.59 1006.42 1006.18 1005.89 1005.57 1005.25 1004.95 1004.70 1004.50 1004.35 1004.25 1004.20 1004.18 1004.16 1004.16 1004.15 1004.13 1004.12 1004.11
1010.85 1010.67 1010.46 1010.19 1009.85 1009.43 1008.94 1008.38 1007.78 1007.17 1006.59 1006.05 1005.60 1005.26 1005.04 1004.94 1004.94 1005.03 1005.17 1005.34 1005.49 1005.60 1005.63 1005.59 1005.46 1005.25 1004.97 1004.66 1004.33 1004.02 1003.74 1003.51 1003.34 1003.22 1003.15 1003.12 1003.12 1003.12 1003.13 1003.13 1003.13 1003.13 1003.14
1010.67 1010.49 1010.27 1009.98 1009.61 1009.15 1008.61 1007.99 1007.34 1006.68 1006.04 1005.46 1004.97 1004.59 1004.33 1004.20 1004.16 1004.21 1004.32 1004.44 1004.54 1004.60 1004.60 1004.52 1004.36 1004.14 1003.87 1003.57 1003.27 1002.99 1002.75 1002.56 1002.42 1002.33 1002.29 1002.27 1002.27 1002.27 1002.26 1002.25 1002.24 1002.23 1002.24
1010.37 1010.20 1009.96 1009.64 1009.23 1008.72 1008.12 1007.46 1006.75 1006.04 1005.36 1004.74 1004.22 1003.81 1003.53 1003.37 1003.31 1003.34 1003.41 1003.50 1003.58 1003.63 1003.61 1003.53 1003.39 1003.19 1002.96 1002.72 1002.47 1002.25 1002.07 1001.92 1001.82 1001.76 1001.72 1001.69 1001.66 1001.63 1001.59 1001.53 1001.48 1001.43 1001.41
1010.02 1009.82 1009.55 1009.18 1008.71 1008.14 1007.48 1006.75 1005.99 1005.23 1004.51 1003.87 1003.33 1002.91 1002.62 1002.45 1002.39 1002.41 1002.48 1002.58 1002.66 1002.72 1002.73 1002.69 1002.60 1002.47 1002.31 1002.15 1001.98 1001.84 1001.72 1001.63 1001.56 1001.50 1001.45 1001.39 1001.31 1001.21 1001.09 1000.96 1000.84 1000.73 1000.66
1009.64 1009.40 1009.07 1008.62 1008.07 1007.42 1006.68 1005.89 1005.07 1004.28 1003.53 1002.88 1002.34 1001.93 1001.65 1001.50 1001.45 1001.49 1001.59 1001.71 1001.83 1001.93 1002.00 1002.02 1002.01 1001.97 1001.91 1001.84 1001.77 1001.70 1001.65 1001.60 1001.55 1001.49 1001.40 1001.29 1001.13 1000.95 1000.74 1000.52 1000.31 1000.12 999.98
1009.30 1008.98 1008.56 1008.03 1007.38 1006.63 1005.81 1004.95 1004.09 1003.26 1002.51 1001.86 1001.34 1000.96 1000.71 1000.60 1000.59 1000.67 1000.81 1000.98 1001.15 1001.31 1001.44 1001.54 1001.62 1001.67 1001.70 1001.72 1001.73 1001.73 1001.73 1001.71 1001.66 1001.58 1001.45 1001.27 1001.04 1000.77 1000.46 1000.15 999.85 999.59 999.39
1009.00 1008.60 1008.09 1007.45 1006.70 1005.86 1004.97 1004.06 1003.16 1002.32 1001.58 1000.95 1000.47 1000.13 999.94 999.88 999.92 1000.05 1000.23 1000.45 1000.67 1000.88 1001.07 1001.24 1001.38 1001.49 1001.59 1001.68 1001.74 1001.79 1001.82 1001.80 1001.74 1001.63 1001.46 1001.21 1000.91 1000.56 1000.18 999.80 999.43 999.11 998.88
Thickness
5727 5723 5719 5715 5712 5708 5704 5701 5697 5694 5690 5686 5683 5679 5675 5671 5667 5662 5658 5654 5650 5646 5643 5640 5636 5634 5631 5629 5627 5624 5622 5621 5621 5625 5628 5633 5636 5640 5644 5648 5653 5656 5660
5727 5723 5719 5715 5711 5707 5703 5700 5696 5692 5689 5685 5680 5676 5672 5668 5664 5658 5654 5650 5645 5641 5637 5634 5630 5628 5624 5621 5619 5616 5615 5614 5613 5615 5618 5621 5625 5630 5634 5638 5643 5648 5652
5727 5722 5717 5713 5709 5705 5702 5698 5694 5690 5686 5682 5678 5673 5669 5665 5660 5656 5651 5646 5641 5637 5632 5628 5624 5620 5616 5613 5611 5609 5607 5608 5606 5606 5608 5610 5614 5618 5622 5627 5632 5637 5643
5726 5720 5715 5712 5708 5704 5700 5696 5692 5688 5683 5679 5674 5670 5665 5661 5657 5652 5647 5642 5637 5632 5627 5623 5618 5614 5610 5607 5604 5602 5600 5598 5597 5597 5598 5600 5602 5606 5610 5613 5618 5625 5631
5724 5718 5714 5711 5707 5702 5698 5694 5689 5685 5681 5676 5671 5666 5662 5657 5653 5648 5643 5638 5631 5626 5621 5617 5613 5609 5606 5602 5599 5596 5593 5590 5589 5588 5589 5590 5592 5594 5597 5602 5606 5612 5620
5722 5717 5713 5708 5703 5699 5695 5690 5686 5681 5676 5672 5667 5662 5657 5654 5651 5646 5639 5633 5626 5621 5615 5611 5607 5603 5601 5598 5595 5593 5589 5585 5582 5581 5581 5581 5584 5585 5588 5592 5595 5600 5606
5719 5715 5710 5705 5700 5696 5692 5686 5681 5676 5672 5667 5663 5658 5653 5650 5646 5641 5636 5628 5621 5615 5610 5605 5602 5599 5595 5591 5589 5587 5584 5583 5581 5577 5576 5576 5577 5579 5580 5583 5586 5590 5597
5715 5711 5707 5702 5697 5692 5687 5682 5678 5673 5667 5663 5658 5654 5649 5646 5642 5637 5631 5624 5617 5611 5605 5600 5595 5592 5589 5585 5582 5579 5577 5576 5574 5573 5573 5573 5574 5574 5575 5576 5579 5583 5590
5712 5708 5704 5699 5693 5687 5682 5678 5673 5668 5663 5659 5655 5650 5645 5642 5638 5632 5626 5618 5611 5606 5601 5596 5591 5587 5584 5580 5576 5572 5571 5570 5570 5569 5569 5569 5569 5569 5569 5568 5570 5572 5579
5710 5706 5701 5695 5689 5684 5679 5675 5670 5664 5660 5655 5651 5646 5642 5638 5634 5628 5622 5613 5606 5602 5596 5591 5588 5583 5579 5575 5570 5566 5563 5563 5562 5562 5562 5563 5563 5563 5564 5563 5565 5566 5570
5708 5702 5696 5691 5685 5680 5675 5670 5665 5659 5654 5650 5646 5642 5638 5634 5630 5625 5618 5609 5603 5598 5592 5587 5583 5579 5574 5570 5566 5561 5560 5558 5555 5553 5553 5554 5555 5556 5557 5558 5560 5562 5566
5701 5695 5689 5684 5679 5675 5668 5663 5658 5653 5647 5643 5639 5636 5633 5630 5626 5621 5615 5608 5602 5594 5588 5584 5579 5574 5569 5565 5561 5558 5555 5552 5548 5546 5546 5547 5548 5550 5552 5553 5556 5559 5564
5690 5685 5680 5675 5670 5666 5660 5655 5650 5645 5640 5637 5633 5629 5628 5625 5621 5617 5612 5605 5598 5590 5585 5580 5575 5569 5564 5560 5557 5554 5551 5547 5543 5541 5542 5544 5545 5546 5546 5547 5550 5553 5558
5679 5674 5669 5664 5660 5656 5651 5647 5642 5638 5633 5630 5626 5623 5622 5618 5614 5610 5605 5599 5593 5586 5580 5574 5569 5564 5559 5556 5554 5551 5548 5545 5542 5541 5541 5542 5541 5539 5539 5540 5542 5545 5549
5668 5663 5658 5654 5649 5645 5642 5639 5636 5634 5630 5625 5623 5620 5615 5612 5612 5607 5599 5593 5587 5580 5572 5565 5560 5556 5553 5552 5550 5548 5546 5543 5540 5539 5538 5537 5536 5535 5535 5535 5537 5539 5542
5655 5650 5645 5641 5637 5634 5631 5630 5630 5627 5625 5622 5618 5614 5613 5610 5608 5601 5594 5588 5581 5573 5563 5558 5555 5552 5550 5549 5547 5546 5544 5542 5541 5539 5537 5535 5534 5533 5533 5533 5533 5535 5539
5641 5637 5632 5629 5625 5622 5620 5617 5617 5619 5618 5615 5612 5608 5604 5602 5598 5593 5587 5579 5571 5563 5556 5555 5552 5550 5549 5547 5546 5544 5544 5543 5540 5538 5536 5535 5533 5532 5530 5530 5530 5532 5536
5627 5624 5620 5616 5613 5611 5609 5607 5605 5604 5604 5606 5606 5603 5599 5595 5591 5586 5578 5569 5561 5556 5553 5553 5552 5550 5548 5546 5545 5543 5543 5541 5539 5537 5536 5534 5532 5530 5529 5528 5529 5531 5534
5611 5608 5606 5603 5601 5599 5597 5595 5594 5592 5592 5592 5593 5593 5591 5587 5582 5577 5569 5562 5561 5558 5555 5553 5551 5549 5548 5546 5544 5543 5541 5540 5539 5536 5535 5534 5532 5529 5528 5528 5529 5530 5532
5594 5594 5592 5589 5587 5585 5583 5582 5581 5580 5579 5579 5579 5580 5579 5575 5571 5567 5562 5559 5557 5556 5555 5553 5552 5550 5548 5546 5544 5542 5540 5539 5538 5536 5535 5533 5531 5529 5528 5528 5528 5530 5532
5579 5577 5577 5573 5571 5569 5568 5567 5566 5565 5566 5566 5568 5569 5567 5564 5564 5562 5560 5557 5555 5554 5553 5552 5550 5549 5547 5545 5543 5541 5540 5538 5536 5535 5534 5533 5531 5530 5529 5529 5529 5531 5533
5563 5561 5559 5557 5556 5554 5553 5552 5551 5551 5552 5553 5555 5556 5556 5554 5555 5555 5555 5555 5554 5553 5552 5550 5549 5548 5546 5544 5542 5540 5538 5536 5535 5533 5533 5532 5531 5530 5529 5529 5530 5531 5533
5548 5545 5543 5541 5539 5539 5538 5536 5536 5536 5538 5539 5541 5543 5544 5545 5547 5548 5549 5550 5550 5549 5549 5547 5546 5545 5544 5542 5540 5538 5535 5534 5532 5531 5530 5530 5530 5529 5529 5529 5530 5532 5534
5532 5530 5527 5525 5523 5522 5521 5521 5521 5522 5524 5526 5529 5532 5535 5537 5539 5541 5543 5544 5545 5545 5544 5544 5543 5542 5540 5538 5536 5534 5532 5530 5529 5528 5528 5527 5528 5528 5529 5530 5531 5533 5536
5517 5514 5511 5509 5507 5506 5506 5507 5507 5509 5512 5516 5519 5523 5527 5530 5532 5535 5537 5539 5540 5540 5539 5539 5538 5537 5535 5533 5531 5529 5527 5525 5524 5523 5524 5524 5526 5528 5529 5530 5532 5534 5536
5503 5501 5498 5496 5494 5493 5493 5494 5496 5499 5502 5506 5510 5514 5518 5522 5526 5529 5531 5533 5534 5534 5534 5534 5533 5531 5530 5528 5526 5524 5522 5520 5519 5519 5519 5521 5524 5526 5528 5530 5533 5535 5538